Probability
3 74 100 94 90 90 90 97 94 100 100 100 100 100 100 100 100 100 100 100 100 100 97 97 94 97 100 100 97 100 100 97 97 100 100 100 100 100 100 100 87 90 100
10 77 100 94 90 90 94 90 94 97 100 100 100 100 100 100 100 100 100 100 100 100 97 94 94 90 90 94 97 97 97 97 97 97 97 97 100 100 100 97 81 97 100
39 87 97 94 90 90 94 90 97 100 97 100 100 100 100 100 100 100 100 100 100 94 94 90 87 84 84 87 90 94 94 94 94 90 90 87 97 100 100 100 90 100 100
65 84 90 94 90 94 97 97 100 100 100 100 100 100 100 100 100 100 100 100 97 90 84 74 68 68 74 74 77 77 81 90 94 87 61 77 87 97 100 100 100 100 100
71 84 94 94 94 97 97 97 100 100 100 100 97 97 97 94 97 97 94 90 87 84 71 68 61 58 61 61 65 68 68 71 74 58 23 39 45 87 97 100 100 100 100
81 87 94 100 94 97 97 97 100 100 100 100 100 97 97 94 94 90 84 84 77 77 71 71 71 65 61 52 45 48 45 45 52 26 10 6 19 61 100 100 100 100 97
87 90 97 100 100 100 100 100 100 100 100 100 100 100 100 100 100 97 97 90 87 87 77 74 74 68 71 68 61 58 52 39 32 6 0 0 10 58 94 100 100 100 100
87 90 100 100 100 100 100 100 100 100 100 100 100 100 100 100 100 100 100 97 100 100 97 97 94 94 94 87 87 77 58 45 35 26 23 16 16 48 77 100 100 100 100
94 97 100 100 100 100 100 100 100 100 100 100 100 100 100 100 100 100 100 100 100 100 100 100 97 97 97 97 97 90 81 71 55 39 29 26 26 58 94 100 100 100 100
94 97 100 100 100 100 100 100 100 100 100 100 100 100 100 100 100 100 100 100 100 100 100 100 100 100 100 100 100 100 100 97 87 77 68 65 68 81 94 100 97 100 97
97 97 97 100 100 100 100 100 100 100 100 100 100 100 100 100 100 100 100 100 100 100 100 100 100 100 100 100 100 100 100 100 94 87 81 81 87 97 97 97 97 97 97
81 97 97 100 100 100 100 100 100 100 100 100 100 100 100 100 100 100 100 100 100 100 100 100 100 100 100 97 97 100 100 97 94 94 94 94 97 97 94 94 94 97 100
71 81 94 97 97 97 100 90 100 100 100 100 100 100 100 100 100 100 100 100 100 97 97 100 100 97 97 97 97 97 94 97 97 97 94 97 97 97 94 94 94 94 100
48 61 68 87 87 84 84 77 74 90 100 100 100 100 100 100 100 100 97 97 97 94 90 90 94 97 94 94 97 97 94 97 94 90 90 97 97 97 94 90 94 94 100
58 58 52 55 71 71 71 61 65 71 77 90 90 90 90 94 90 87 84 74 84 74 77 87 87 90 94 94 94 94 84 90 90 87 90 90 97 97 94 90 90 97 94
48 42 39 39 45 48 48 48 52 58 68 71 81 84 87 87 87 81 77 65 58 58 65 71 77 84 77 81 84 84 90 84 87 84 87 84 87 97 97 97 94 87 87
39 35 35 35 35 32 39 42 48 42 42 58 68 74 81 77 77 71 58 45 39 39 29 39 48 48 61 58 65 61 61 65 71 74 74 84 81 87 90 94 94 90 87
23 23 26 29 26 32 35 35 29 35 48 48 48 55 65 65 65 52 45 39 29 26 23 19 19 19 29 26 23 26 32 42 42 42 58 61 68 61 74 87 94 94 90
23 16 16 13 16 16 19 23 23 23 35 42 35 42 45 52 55 35 26 26 19 13 13 16 10 6 6 10 13 13 10 13 19 26 39 42 45 48 58 58 84 87 84
13 13 19 10 10 10 13 10 10 19 26 26 29 26 29 26 23 16 19 16 16 16 3 3 3 0 0 0 3 6 6 3 3 6 10 19 29 39 42 55 65 65 68
6 3 3 3 3 6 6 6 10 10 6 3 10 10 10 3 6 6 13 13 6 10 3 0 0 0 0 0 0 0 0 0 3 3 3 10 13 13 26 42 52 55 52
3 3 3 6 3 3 3 3 3 3 0 0 0 3 3 3 6 10 6 13 10 6 3 3 3 0 0 0 3 0 0 0 0 0 0 0 6 13 16 19 26 35 35
3 3 3 3 0 0 0 0 0 0 0 0 0 0 3 6 6 3 3 10 3 3 6 3 0 0 0 0 0 0 0 0 0 0 0 0 0 3 0 6 6 10 29
3 3 3 0 0 0 0 0 0 0 0 0 0 0 0 0 0 3 3 3 3 3 3 0 0 0 0 0 0 0 0 0 0 0 0 0 0 0 0 0 0 0 13
0 0 0 0 0 0 0 0 0 0 0 0 0 0 0 0 0 0 0 0 0 0 0 0 0 0 0 0 0 0 0 0 0 0 0 0 0 0 0 0 0 0 3
0 0 0 0 0 0 0 0 0 0 0 0 0 0 0 0 0 0 0 0 0 0 0 0 0 0 0 0 0 0 0 0 0 0 0 0 0 0 0 0 0 3 3
Height
5906 5905 5905 5904 5903 5902 5900 5899 5898 5897 5896 5896 5895 5895 5894 5894 5894 5893 5893 5892 5892 5892 5891 5891 5891 5890 5890 5889 5889 5888 5888 5887 5887 5887 5886 5886 5886 5886 5886 5886 5887 5887 5888
5906 5905 5905 5904 5903 5901 5900 5899 5897 5896 5896 5895 5895 5894 5894 5894 5893 5893 5893 5892 5892 5892 5891 5891 5890 5890 5890 5889 5889 5889 5888 5888 5888 5887 5887 5887 5887 5887 5887 5887 5888 5888 5889
5906 5905 5904 5903 5902 5901 5900 5898 5897 5896 5895 5894 5894 5894 5893 5893 5893 5892 5892 5892 5891 5891 5891 5890 5890 5890 5890 5889 5889 5889 5888 5888 5888 5888 5888 5888 5888 5888 5888 5888 5888 5888 5889
5905 5904 5904 5903 5901 5900 5899 5897 5896 5895 5894 5894 5893 5893 5892 5892 5892 5891 5891 5891 5890 5890 5890 5890 5890 5890 5890 5889 5889 5889 5889 5888 5888 5888 5888 5888 5888 5888 5888 5888 5888 5889 5889
5905 5904 5903 5902 5900 5899 5898 5896 5895 5894 5894 5893 5892 5892 5891 5891 5891 5890 5890 5889 5889 5889 5889 5889 5889 5889 5889 5889 5889 5888 5888 5888 5888 5888 5888 5888 5888 5888 5889 5888 5888 5889 5889
5904 5903 5902 5900 5899 5898 5896 5895 5894 5893 5893 5892 5891 5891 5890 5889 5889 5889 5888 5888 5888 5888 5888 5888 5888 5888 5888 5888 5888 5887 5887 5887 5888 5888 5888 5888 5888 5888 5888 5888 5888 5888 5889
5902 5902 5900 5899 5898 5896 5895 5894 5893 5892 5891 5890 5890 5889 5888 5888 5887 5887 5886 5886 5886 5885 5885 5885 5886 5886 5886 5886 5886 5886 5886 5886 5886 5886 5887 5887 5887 5887 5887 5887 5888 5888 5888
5901 5900 5899 5898 5896 5895 5894 5892 5891 5890 5889 5888 5888 5887 5886 5886 5885 5884 5884 5883 5883 5883 5883 5883 5883 5883 5883 5883 5883 5883 5883 5883 5884 5884 5885 5885 5885 5886 5886 5886 5887 5887 5888
5900 5899 5897 5896 5894 5893 5892 5890 5889 5888 5887 5886 5885 5884 5884 5883 5882 5881 5881 5880 5880 5880 5879 5879 5879 5879 5879 5880 5880 5880 5880 5881 5881 5881 5882 5882 5883 5883 5884 5885 5885 5886 5887
5898 5896 5895 5894 5892 5891 5889 5888 5886 5885 5884 5883 5882 5881 5880 5879 5879 5878 5878 5877 5877 5876 5876 5876 5875 5875 5875 5876 5876 5876 5877 5877 5878 5878 5878 5879 5880 5881 5881 5882 5883 5884 5885
5895 5894 5892 5891 5889 5887 5886 5884 5883 5881 5880 5879 5878 5877 5876 5876 5875 5874 5874 5873 5873 5872 5872 5871 5871 5871 5871 5871 5872 5872 5872 5873 5874 5874 5875 5876 5877 5877 5878 5879 5880 5881 5882
5892 5890 5889 5887 5885 5884 5882 5880 5878 5877 5876 5875 5874 5873 5872 5871 5870 5870 5869 5868 5868 5868 5867 5867 5866 5866 5866 5866 5867 5867 5868 5868 5869 5870 5870 5871 5872 5873 5874 5875 5877 5878 5879
5887 5886 5884 5882 5881 5879 5877 5875 5873 5872 5870 5869 5868 5867 5866 5865 5865 5864 5864 5863 5863 5863 5862 5862 5862 5861 5862 5862 5862 5862 5863 5863 5864 5865 5866 5867 5868 5869 5870 5871 5872 5873 5875
5883 5881 5879 5877 5875 5873 5871 5870 5868 5866 5864 5863 5862 5861 5860 5860 5858 5858 5858 5858 5857 5857 5857 5856 5856 5856 5857 5857 5857 5857 5857 5858 5859 5859 5860 5861 5862 5864 5865 5866 5868 5869 5870
5877 5875 5873 5870 5868 5866 5864 5862 5860 5858 5856 5855 5854 5853 5853 5853 5852 5851 5851 5851 5850 5851 5851 5851 5851 5851 5851 5851 5851 5852 5852 5853 5854 5854 5855 5856 5857 5859 5860 5861 5862 5864 5865
5871 5869 5866 5863 5861 5858 5856 5853 5851 5849 5847 5846 5846 5845 5845 5845 5845 5845 5844 5845 5845 5844 5845 5845 5845 5845 5846 5847 5847 5847 5847 5848 5849 5850 5851 5851 5853 5854 5855 5856 5857 5859 5860
5864 5862 5859 5855 5853 5850 5847 5843 5841 5839 5837 5836 5836 5836 5836 5837 5837 5837 5838 5838 5838 5838 5838 5839 5839 5840 5840 5841 5842 5842 5843 5844 5845 5845 5846 5847 5848 5849 5850 5852 5853 5853 5855
5857 5854 5851 5847 5844 5841 5836 5833 5830 5828 5827 5826 5827 5827 5828 5828 5829 5829 5831 5831 5832 5832 5832 5833 5833 5834 5835 5836 5836 5837 5838 5839 5840 5841 5842 5842 5843 5844 5845 5847 5847 5848 5849
5849 5846 5843 5839 5835 5831 5827 5822 5819 5817 5817 5817 5817 5818 5819 5820 5821 5822 5823 5824 5825 5826 5826 5827 5828 5829 5830 5830 5831 5832 5833 5834 5835 5836 5837 5838 5839 5840 5841 5842 5843 5843 5844
5841 5838 5835 5831 5826 5823 5819 5815 5810 5809 5808 5808 5810 5810 5810 5812 5813 5814 5816 5817 5818 5818 5819 5821 5822 5823 5824 5825 5826 5827 5829 5830 5831 5832 5833 5834 5835 5836 5837 5837 5838 5838 5839
5834 5831 5828 5825 5820 5817 5813 5810 5807 5804 5802 5802 5802 5802 5803 5804 5805 5806 5808 5809 5811 5812 5813 5814 5815 5817 5818 5819 5820 5822 5824 5825 5826 5827 5828 5829 5830 5831 5832 5833 5833 5834 5834
5827 5824 5821 5818 5815 5812 5810 5807 5804 5801 5799 5798 5797 5797 5797 5798 5798 5800 5802 5803 5804 5805 5806 5807 5809 5810 5812 5813 5814 5816 5818 5820 5821 5822 5824 5825 5826 5827 5828 5829 5829 5829 5829
5820 5817 5815 5812 5810 5807 5805 5802 5800 5798 5796 5794 5793 5793 5793 5793 5793 5794 5795 5796 5798 5799 5799 5800 5802 5803 5805 5806 5808 5810 5812 5814 5816 5817 5818 5820 5821 5822 5823 5824 5824 5825 5825
5813 5810 5808 5806 5804 5801 5799 5797 5795 5792 5791 5789 5788 5787 5787 5786 5787 5787 5788 5789 5790 5791 5792 5793 5794 5795 5797 5799 5801 5803 5805 5807 5809 5811 5813 5815 5816 5817 5818 5819 5819 5819 5820
5807 5804 5801 5798 5796 5794 5791 5789 5787 5785 5783 5782 5781 5780 5779 5779 5779 5780 5780 5781 5782 5782 5783 5785 5786 5788 5790 5792 5793 5795 5798 5800 5802 5804 5806 5808 5810 5811 5812 5813 5814 5814 5814
5799 5796 5793 5790 5787 5784 5782 5779 5777 5775 5773 5772 5771 5770 5770 5770 5770 5770 5770 5771 5772 5773 5774 5775 5777 5779 5781 5783 5785 5787 5790 5792 5794 5797 5799 5800 5802 5804 5805 5806 5808 5808 5808
Wind_Speed
5 5 6 6 7 7 7 6 6 6 6 6 6 7 8 8 8 9 9 9 9 9 8 8 8 8 7 7 7 6 6 6 6 6 7 7 7 7 7 7 7 7 7
6 7 7 7 8 8 7 7 6 5 5 5 5 5 6 6 7 7 7 7 7 7 7 7 7 7 6 6 5 5 5 4 5 5 5 5 5 6 6 6 6 6 7
8 8 9 9 9 9 8 8 7 6 6 5 5 5 5 6 6 6 6 6 6 6 6 6 6 5 5 4 4 3 3 3 3 3 3 3 4 4 5 6 6 6 6
9 10 10 11 11 10 10 9 8 8 7 7 7 6 6 6 7 7 7 7 6 6 6 6 5 5 4 3 3 2 1 0 1 1 2 2 3 3 4 5 5 6 6
11 11 12 12 12 12 11 10 10 9 9 9 9 9 8 8 8 8 8 8 8 7 7 7 6 6 5 4 3 3 2 2 2 2 2 3 3 4 4 5 5 5 6
12 13 14 14 14 13 12 12 11 11 11 11 11 11 11 11 11 11 11 10 10 10 9 9 8 8 7 6 5 5 4 4 4 4 4 4 4 5 5 5 5 5 5
14 15 15 15 14 13 13 13 13 13 13 13 14 14 14 13 13 13 13 13 13 12 12 12 11 11 10 9 8 7 7 7 6 6 6 6 6 6 6 6 6 5 5
15 16 16 15 15 14 15 15 15 15 15 16 16 16 16 16 16 16 16 16 16 16 15 15 14 13 13 12 11 11 10 10 9 9 9 8 8 8 7 7 7 7 6
15 16 16 17 17 16 16 16 17 17 17 17 18 18 18 18 18 19 19 19 19 18 18 18 17 17 16 15 14 14 14 13 12 12 12 11 11 11 10 10 9 9 8
16 17 18 19 19 19 19 19 18 18 18 19 19 19 20 20 20 20 21 20 20 20 20 20 20 19 19 18 17 17 16 16 15 15 15 14 13 13 13 12 12 11 10
18 19 21 21 22 22 22 21 21 20 20 20 20 20 21 22 22 22 22 21 21 21 21 21 21 21 20 20 19 19 19 18 18 17 17 16 16 15 15 15 15 14 13
20 22 23 24 25 26 25 24 24 23 22 22 22 22 22 22 22 22 22 22 22 21 21 21 21 21 21 21 20 20 21 20 20 20 20 19 19 18 18 17 17 17 16
22 23 25 27 28 29 29 28 27 26 25 24 24 24 23 23 23 23 23 23 23 22 21 21 21 21 22 22 22 22 22 22 22 22 22 21 20 20 20 20 20 19 19
25 26 28 30 31 32 33 32 31 30 28 27 27 26 26 26 25 25 25 25 24 23 22 22 22 22 22 22 22 23 23 23 23 22 22 22 21 21 21 21 22 22 22
28 29 31 33 34 35 36 36 35 35 34 31 30 29 28 28 28 27 27 27 26 25 24 23 22 22 21 21 21 21 22 22 19 19 20 20 20 21 21 22 23 23 23
30 31 33 35 37 38 39 38 37 38 36 35 33 31 30 29 29 28 27 27 27 26 24 22 22 21 21 20 19 19 19 18 19 19 19 20 20 20 20 20 21 22 23
32 34 36 36 38 40 40 39 39 41 40 38 35 33 32 31 30 30 28 28 27 25 23 22 21 21 20 19 19 18 18 17 18 18 18 18 18 19 19 20 20 21 23
35 36 37 38 40 40 41 41 42 42 40 37 36 35 34 32 31 30 28 28 27 25 23 21 21 21 20 20 19 18 17 17 17 16 16 16 16 17 18 18 19 20 21
37 38 38 38 39 40 41 41 40 39 38 36 35 33 34 32 31 29 28 27 26 25 22 21 21 21 21 20 20 19 19 18 18 17 17 16 16 16 16 17 18 20 21
39 38 39 38 38 38 38 36 31 32 30 29 30 30 30 31 29 28 28 27 26 24 22 23 23 22 22 21 21 21 20 20 19 18 17 17 17 17 17 17 18 18 19
39 38 37 35 33 33 31 30 26 23 22 23 25 25 25 26 26 27 27 27 26 24 23 23 23 23 23 23 22 22 22 21 20 19 18 17 17 17 17 17 18 18 19
37 36 33 33 31 30 29 28 26 25 23 22 21 21 22 23 24 24 25 25 25 24 24 24 24 24 24 24 24 23 23 22 21 20 19 18 17 17 17 16 16 17 17
36 33 32 31 30 30 30 29 27 26 24 24 23 23 24 24 24 24 25 26 26 26 25 25 26 26 26 25 26 25 25 24 23 21 19 18 17 17 16 16 16 17 17
33 32 31 31 31 31 31 30 30 29 28 27 27 27 27 27 27 27 27 28 28 28 28 28 28 28 28 28 28 27 27 26 25 23 22 20 19 18 17 17 17 17 17
32 33 33 33 33 34 34 34 34 33 32 32 31 31 31 30 30 30 30 31 31 31 31 31 30 30 30 30 30 30 29 29 28 27 25 24 22 20 19 18 18 18 17
33 35 35 36 37 38 38 38 38 38 38 38 37 36 36 36 36 36 36 36 35 35 34 34 34 33 33 33 32 33 33 32 31 30 29 27 25 24 22 20 20 19 18
Wind_Direction
318 322 327 329 332 339 348 359 11 23 31 34 32 28 24 21 20 20 20 22 25 28 32 37 42 47 52 56 58 62 67 73 77 82 87 93 98 102 105 107 110 117 124
301 307 313 315 319 326 333 340 347 354 1 6 7 7 7 6 5 6 7 8 10 14 19 24 30 36 42 47 51 56 61 68 76 82 88 96 104 110 116 116 117 122 127
296 300 304 307 311 316 321 325 328 331 332 335 337 338 338 340 340 342 347 351 354 356 1 5 10 17 25 30 34 42 54 65 78 91 102 109 119 126 129 130 130 132 134
298 300 300 301 303 307 310 311 314 315 314 314 315 315 315 315 316 318 321 327 331 333 337 342 346 349 352 357 356 355 2 53 122 139 145 151 155 155 153 150 146 144 145
301 300 297 297 298 301 302 303 305 306 305 305 303 302 301 301 300 301 303 307 310 312 316 318 320 323 321 315 312 304 289 264 233 213 205 196 189 185 182 175 164 159 158
302 299 295 295 296 297 298 299 299 299 298 297 296 295 294 293 292 292 293 295 298 300 300 301 302 302 302 299 292 284 277 266 250 235 227 223 215 206 199 192 183 174 171
304 300 296 295 296 296 296 297 296 295 293 292 291 291 290 289 288 287 288 289 290 292 293 292 292 292 291 288 285 279 273 269 260 248 239 234 230 224 217 209 204 195 189
305 302 299 297 296 296 295 295 294 292 291 289 288 288 287 286 285 284 284 285 285 285 287 287 287 286 285 281 279 276 272 268 265 260 250 243 241 239 233 225 220 214 208
306 303 300 298 298 296 294 293 292 291 289 287 285 284 283 283 282 281 281 281 281 281 281 282 282 281 280 278 276 274 271 268 264 262 258 252 248 247 244 238 232 226 222
303 299 298 298 297 296 293 290 289 288 287 286 285 284 283 282 281 281 280 280 279 278 278 278 278 277 276 275 275 273 270 267 264 261 259 257 253 250 247 244 239 233 229
300 296 296 295 293 291 289 287 286 285 284 284 284 284 284 283 282 281 281 280 279 278 277 276 276 275 274 273 273 272 269 267 265 261 259 258 255 253 251 248 243 238 236
297 293 292 292 289 286 284 283 282 282 281 282 282 283 283 283 283 282 281 280 279 278 276 275 275 275 274 273 271 270 268 266 262 260 259 257 255 253 251 248 245 241 239
294 290 290 290 288 285 281 279 278 278 277 278 279 280 280 280 280 281 281 280 279 277 275 273 271 271 271 271 270 271 270 266 263 259 258 257 256 255 251 248 244 241 240
294 291 290 289 286 286 282 278 276 274 273 273 274 275 277 278 278 279 279 279 277 276 274 272 270 268 268 268 269 269 268 266 265 262 259 257 255 256 254 251 247 245 243
292 290 290 288 285 281 281 277 273 273 271 267 268 269 271 274 275 276 276 276 275 274 273 272 269 271 270 269 267 267 267 264 262 260 257 255 253 254 256 255 251 250 248
292 293 292 288 287 284 283 278 273 272 270 265 265 266 266 267 271 274 273 274 273 272 271 270 269 269 267 266 265 265 264 260 257 259 259 257 257 256 255 256 255 254 254
288 290 290 290 291 290 288 282 276 274 267 263 262 263 263 264 267 270 272 272 272 269 268 268 267 266 264 262 261 260 257 255 255 257 259 258 256 256 256 257 258 259 259
292 292 291 296 297 297 296 290 282 278 273 264 262 262 261 263 264 267 269 269 270 268 265 264 263 262 260 258 257 255 252 251 254 256 258 256 255 255 257 260 260 260 261
294 294 295 298 299 299 301 295 287 277 271 266 264 265 263 261 263 267 266 265 265 263 261 261 258 257 256 254 252 252 251 251 251 254 255 254 254 256 258 261 262 263 263
293 294 298 299 300 300 302 298 288 276 272 269 266 266 266 263 263 264 264 263 261 258 259 257 254 253 251 250 249 249 249 249 250 252 253 254 255 256 259 261 264 265 267
294 296 298 298 302 304 303 303 298 288 282 279 273 267 267 268 264 260 262 262 260 257 255 255 254 250 248 247 246 246 246 246 248 249 250 251 252 254 258 262 265 266 268
292 296 298 300 302 303 303 304 304 301 296 291 284 272 268 268 264 260 260 263 263 260 256 256 255 250 249 248 246 245 244 244 245 246 247 249 252 254 257 262 266 268 271
292 295 296 298 298 299 300 300 298 297 295 292 287 278 274 272 270 266 265 266 264 261 258 255 254 251 249 247 244 244 244 243 243 244 246 248 251 254 257 262 267 270 273
294 295 295 294 294 294 295 295 293 294 294 291 286 282 276 273 272 269 268 267 265 262 259 256 255 251 249 246 243 242 242 243 244 245 246 248 250 253 256 261 266 270 273
294 294 294 293 291 291 292 292 291 290 289 287 284 281 277 274 270 267 267 266 263 261 258 257 255 252 250 247 244 242 241 242 244 245 248 249 250 253 256 261 265 270 273
297 296 295 293 291 291 291 290 289 287 285 283 280 277 273 270 268 267 266 264 262 259 257 256 255 253 251 250 248 244 242 241 242 244 247 250 253 254 256 260 265 269 273